Regional Weather Roundup
Issued by NWS

Home | Current Version | Previous Version | Text Only | Print | Product List | Glossary Off
Versions: 1 2 3 4 5 6 7 8 9 10 11 12 13 14 15 16 17 18 19 20 21 22 23 24 25 26 27 28 29 30 31 32 33 34 35 36 37 38 39 40 41 42 43 44 45 46 47 48 49 50

000
ASUS43 KFSD 270202
RWRSD

WEATHER ROUNDUP FOR SOUTH DAKOTA
NATIONAL WEATHER SERVICE SIOUX FALLS SD
900 PM CDT SUN APR 26 2015

NOTE: "FAIR" INDICATES FEW OR NO CLOUDS BELOW 12,000 FEET WITH NO
SIGNIFICANT WEATHER AND/OR OBSTRUCTIONS TO VISIBILITY.


SDZ001>005-009-010-012>017-270300-
NORTHWEST AND NORTH CENTRAL SOUTH DAKOTA

CITY           SKY/WX    TMP DP  RH WIND       PRES   REMARKS
BUFFALO          N/A     46  46 100 NE15      30.04R
FAITH            N/A     55  39  54 E8        30.08R
MOBRIDGE       CLOUDY    57  34  41 E8        30.06R
$$

SDZ012>016-024>037-041>051-057-063-072>074-270300-
SOUTHWEST AND SOUTH CENTRAL SOUTH DAKOTA

CITY           SKY/WX    TMP DP  RH WIND       PRES   REMARKS
RAPID CTY ARPT CLOUDY    49  44  83 CALM      30.08R
PIERRE         CLOUDY    55  32  41 E5        30.06R
CUSTER         CLOUDY    40  37  89 E7        30.09R
ELLSWORTH AFB  CLOUDY    49  46  90 SW1       30.08R
PHILIP         MOCLDY    54  37  52 S3        30.07R
PINE RIDGE     CLOUDY    45  38  76 E3        30.07R
WINNER         FAIR      54  31  41 SE8       30.07R
$$

SDZ004>011-016>023-039-040-270300-
NORTHEAST SOUTH DAKOTA

CITY           SKY/WX    TMP DP  RH WIND       PRES   REMARKS
ABERDEEN       PTCLDY    57  32  38 E9        30.09R
WATERTOWN      CLEAR     54  28  36 E7        30.10R
BROOKINGS      CLEAR     55  28  35 NE6       30.10R
SISSETON         N/A     53  26  35 SE6       30.10R
$$

SDZ017-020-022-023-036>040-048>070-270300-
SOUTHEAST SOUTH DAKOTA

CITY           SKY/WX    TMP DP  RH WIND       PRES   REMARKS
SIOUX FALLS    PTCLDY    52  34  50 N6        30.06R
HURON          CLEAR     54  33  45 E7        30.07R
MITCHELL       CLEAR     56  38  50 E6        30.07R
YANKTON        CLEAR     57  28  33 E3        30.04R
$$

ABBREVIATIONS USED IN REMARKS
   TC - TEMPERATURE IN CELSIUS
  WCI - WIND CHILL INDEX
   HX - HEAT INDEX
  VSB - VISIBILITY




USA.gov is the U.S. government's official web portal to all federal, state and local government web resources and services.